Location: Newark
(49.8969°N, 3.3422°E)
Time: 18:21:25
(UTC+00:00)

Explorer 7 - Pass Details

Date: 28 January 2020
Orbit: 485 x 679 km, 50.3° (Epoch: 16 February)

Event Time Altitude Azimuth Distance (km) Brightness Sun altitude
Rises 03:46:27 0° 281° (W) 2,571 - -35.2°
Reaches altitude 10° 03:49:12 10° 260° (W) 1,705 - -34.7°
Maximum altitude 03:51:40 17° 220° (SW) 1,361 - -34.3°
Drops below altitude 10° 03:54:13 10° 179° (S) 1,750 - -33.9°
Sets 03:57:05 0° 159° (SSE) 2,673 - -33.5°
